Location: Newark
(45.0500°N, 41.9667°E)
Time: 07:27:58
(UTC+00:00)

Starlink (trailer) - Pass Details

Date: 22 July 2019
Orbit: 549 x 550 km, 53.0° (Epoch: 21 August)

Event Time Altitude Azimuth Distance (km) Brightness Sun altitude
Rises 00:38:25 0° 284° (WNW) 2,719 6.8 -10.4°
Reaches altitude 10° 00:40:55 10° 297° (WNW) 1,827 6.1 -10.0°
Maximum altitude 00:44:29 27° 356° (N) 1,080 5.6 -9.6°
Drops below altitude 10° 00:48:03 10° 55° (NE) 1,828 7.9 -9.1°
Sets 00:50:34 0° 68° (ENE) 2,723 8.8 -8.8°
